Weather History for Melbourne, FL

Change the Weather History Date:

Tuesday, February 12, 2013

  Actual Average Record
Temperature  
Mean Temperature 74 °F 62 °F  
Max Temperature 85 °F 73 °F 85 °F (1975)
Min Temperature 62 °F 51 °F 32 °F (1955)
Degree Days  
Heating Degree Days 0 5  
Month to date heating degree days 44 60  
Since 1 July heating degree days 236 429  
Cooling Degree Days 9 2  
Month to date cooling degree days 33 24  
Year to date cooling degree days 137 68  
Growing Degree Days 22 (Base 50)    
Moisture  
Dew Point 65 °F    
Average Humidity 74    
Maximum Humidity 100    
Minimum Humidity 47    
Precipitation  
Precipitation 0.00 in 0.09 in 3.60 in (1963)
Month to date precipitation T 1.04  
Year to date precipitation 1.66 3.31  
Sea Level Pressure  
Sea Level Pressure 30.04 in    
Wind  
Wind Speed 8 mph (SSW)    
Max Wind Speed 18 mph    
Max Gust Speed 23 mph    
Visibility 10 miles    
Events      
T = Trace of Precipitation, MM = Missing Value Source: NWS Daily Summary

Daily Weather History Graph

Daily Weather History Graph

Search for Another Location

Airport:

Trip Planner

Search our weather history database for the weather conditions in past years. The results will help you decide how hot, cold, wet, or windy it might be!

Date:

Astronomy

Feb. 12, 2013 Rise Set
Actual Time 7:02 AM EST 6:11 PM EST
Civil Twilight 6:38 AM EST 6:35 PM EST
Nautical Twilight 6:10 AM EST 7:03 PM EST
Astronomical Twilight 5:43 AM EST 7:30 PM EST
Moon 8:16 AM EST (2/12) 8:49 PM EST (2/12)
Length of Visible Light 11h 57m
Length of Day
11h 09m
Waxing Crescent, 7% of the Moon is Illuminated
Feb 12
Waxing Crescent
Feb 17
First Quarter
Feb 25
Full
Mar 4
Last Quarter
Mar 11
New

Hourly Weather History & Observations

Time (EST) Temp. Heat Index Dew Point Humidity Pressure Visibility Wind Dir Wind Speed Gust Speed Precip Events Conditions
12:53 AM 69.1 °F - 63.0 °F 81% 30.12 in 10.0 mi South 8.1 mph - N/A   Scattered Clouds
1:53 AM 68.0 °F - 63.0 °F 84% 30.10 in 10.0 mi South 8.1 mph - N/A   Clear
2:53 AM 68.0 °F - 64.0 °F 87% 30.09 in 10.0 mi SSW 8.1 mph - N/A   Overcast
3:53 AM 66.9 °F - 63.0 °F 87% 30.09 in 10.0 mi SSW 8.1 mph - N/A   Partly Cloudy
4:53 AM 64.9 °F - 63.0 °F 93% 30.08 in 10.0 mi SW 4.6 mph - N/A   Clear
5:53 AM 64.0 °F - 63.0 °F 96% 30.09 in 10.0 mi SSW 4.6 mph - N/A   Clear
6:53 AM 63.0 °F - 62.1 °F 97% 30.10 in 9.0 mi Calm Calm - N/A   Clear
7:53 AM 64.0 °F - 64.0 °F 100% 30.12 in 8.0 mi Calm Calm - N/A   Partly Cloudy
8:53 AM 70.0 °F - 66.0 °F 87% 30.12 in 10.0 mi SSW 5.8 mph - N/A   Clear
9:53 AM 73.9 °F - 66.0 °F 76% 30.12 in 10.0 mi SSW 13.8 mph - N/A   Overcast
10:53 AM 78.1 °F - 64.9 °F 64% 30.12 in 10.0 mi SSW 13.8 mph - N/A   Partly Cloudy
11:53 AM 81.0 °F 82.2 °F 63.0 °F 54% 30.09 in 10.0 mi SSW 10.4 mph - N/A   Mostly Cloudy
12:53 PM 80.1 °F 81.2 °F 62.1 °F 54% 30.06 in 10.0 mi SW 12.7 mph - N/A   Mostly Cloudy
1:53 PM 82.9 °F 83.7 °F 62.1 °F 49% 30.01 in 10.0 mi SSW 10.4 mph 21.9 mph N/A   Scattered Clouds
2:53 PM 82.9 °F 83.3 °F 61.0 °F 47% 29.98 in 10.0 mi SW 5.8 mph - N/A   Scattered Clouds
3:53 PM 82.9 °F 83.2 °F 60.1 °F 46% 29.97 in 10.0 mi SSW 11.5 mph - N/A   Partly Cloudy
4:34 PM 78.8 °F - 66.2 °F 65% 29.96 in 10.0 mi SE 15.0 mph - N/A   Partly Cloudy
4:53 PM 77.0 °F - 68.0 °F 74% 29.95 in 10.0 mi ESE 11.5 mph 23.0 mph N/A   Partly Cloudy
5:53 PM 75.9 °F - 66.9 °F 74% 29.96 in 10.0 mi SE 11.5 mph - N/A   Mostly Cloudy
6:53 PM 75.0 °F - 66.0 °F 73% 29.96 in 10.0 mi SSE 11.5 mph - N/A   Overcast
7:53 PM 73.9 °F - 66.9 °F 79% 29.97 in 10.0 mi SSE 8.1 mph - N/A   Mostly Cloudy
8:53 PM 73.9 °F - 69.1 °F 85% 29.98 in 10.0 mi South 6.9 mph - N/A   Mostly Cloudy
9:53 PM 72.0 °F - 68.0 °F 87% 29.99 in 10.0 mi SSW 5.8 mph - N/A   Scattered Clouds
10:53 PM 71.1 °F - 66.0 °F 84% 29.99 in 10.0 mi SSW 5.8 mph - N/A   Partly Cloudy
11:53 PM 70.0 °F - 66.0 °F 87% 29.99 in 10.0 mi SSW 6.9 mph - N/A   Clear